Home > Weather > Galveston > Past weeks

Flag for U.S.A. Weather for the Past 2 Weeks in Galveston, Texas, U.S.A.

Now
46 °F

Clear.


Feels Like: 45 °F
Forecast: 44 / 58 °F
Wind: 3 mph from East

Location: Scholes Field

Current Time: Feb 7, 2016 at 5:22:28 AM

Latest Report: Feb 7, 2016 at 4:52 AM


Visibility: 10 mi

Pressure: 30.32 "Hg

Humidity: 89%

Dew point: 43 °F

Location of GalvestonLocation

Historic Weather in Galveston — Graph

°F

Galveston Temperature Yesterday

Maximum temperature yesterday: 59 °F (at 11:52 AM)
Minimum temperature yesterday: 48 °F (at 10:52 PM)
Average temperature yesterday: 53 °F

High & Low Weather Summary for the Past Weeks

 TemperatureHumidityPressure
High70 °F (Jan 31, 12:52 PM)100% (Jan 29, 7:52 AM)30.50 "Hg (Jan 29, 7:52 AM)
Low41 °F (Jan 23, 3:52 AM)34% (Feb 4, 3:52 PM)29.62 "Hg (Feb 2, 1:52 AM)
Average56 °F75%30.10 "Hg
* Reported Jan 23 3:52 AM — Feb 7 3:52 AM, Galveston, Weather by CustomWeather, © 2016

Note: Actual official high and low records may vary slightly from our data, if they occured in-between our weather recording intervals... More about our weather records

Advertising

Galveston Weather History for the Previous 24 Hours

 ConditionsComfort  
Time TempWeatherWind HumidityBarometerVisibility
3:52 AM
Sun, Feb 7
46 °FClear.3 mph86%30.33 "Hg10 mi
2:52 AM44 °FClear.7 mph89%30.35 "Hg10 mi
1:52 AM46 °FClear.7 mph86%30.36 "Hg10 mi
12:52 AM46 °FPassing clouds.6 mph83%30.37 "Hg10 mi
11:52 PM
Sat, Feb 6
48 °FPassing clouds.5 mph80%30.37 "Hg10 mi
10:52 PM48 °FPassing clouds.7 mph80%30.38 "Hg10 mi
9:52 PM49 °FClear.3 mph80%30.38 "Hg10 mi
8:52 PM49 °FClear.6 mph80%30.37 "Hg10 mi
7:52 PM50 °FClear.8 mph74%30.35 "Hg10 mi
6:52 PM54 °FClear.15 mph57%30.33 "Hg10 mi
5:52 PM56 °FSunny.16 mph51%30.30 "Hg10 mi
4:52 PM58 °FPassing clouds.18 mph46%30.29 "Hg10 mi
3:52 PM59 °FPassing clouds.18 mph42%30.27 "Hg10 mi
2:52 PM59 °FSunny.20 mph41%30.27 "Hg10 mi
1:52 PM59 °FSunny.14 mph44%30.25 "Hg10 mi
12:52 PM58 °FSunny.15 mph43%30.27 "Hg10 mi
11:52 AM59 °FSunny.12 mph51%30.29 "Hg10 mi
10:52 AM57 °FScattered clouds.12 mph67%30.32 "Hg10 mi
9:52 AM54 °FPassing clouds.8 mph77%30.33 "Hg10 mi
8:52 AM51 °FScattered clouds.No wind96%30.32 "Hg10 mi
7:52 AM50 °FOvercast.7 mph89%30.32 "Hg10 mi
6:52 AM54 °FLight rain. Overcast.12 mph77%30.31 "Hg7 mi
5:52 AM50 °FPassing clouds.6 mph83%30.29 "Hg10 mi
Weather by CustomWeather, © 2016

See weather overviewHow to use our weather pages